This is the latest recevied weather packets stored in our database for station/object N0QV. If no packets are shown the sender has not sent any weather packets the latest 10 day(s).
| Time | Temp. | Humidity | Pressure | Rain* | Wind** | Luminosity | Snow |
|---|---|---|---|---|---|---|---|
| 1787953614 | 27.22° C | 60% | 1017.9 hPa | 0 mm | - | 260 W/m² | - |
| 1787953309 | 27.22° C | 60% | 1017.9 hPa | 0 mm | - | 186 W/m² | - |
| 1787953008 | 27.22° C | 60% | 1017.8 hPa | 0 mm | - | 159 W/m² | - |
| 1787952707 | 27.22° C | 59% | 1017.9 hPa | 0 mm | - | 152 W/m² | - |
| 1787952402 | 26.67° C | 60% | 1018 hPa | 0 mm | - | 151 W/m² | - |
| 1787952107 | 27.22° C | 58% | 1018.2 hPa | 0 mm | - | 148 W/m² | - |
| 1787951797 | 27.22° C | 59% | 1018 hPa | 0 mm | - | 189 W/m² | - |
| 1787951493 | 27.22° C | 57% | 1018.1 hPa | 0 mm | - | 209 W/m² | - |
| 1787951189 | 27.78° C | 56% | 1018 hPa | 0 mm | - | 194 W/m² | - |
| 1787950885 | 27.78° C | 55% | 1018.2 hPa | 0 mm | - | 166 W/m² | - |
| 1787950580 | 27.22° C | 56% | 1018.1 hPa | 0 mm | - | 194 W/m² | - |
| 1787950276 | 27.78° C | 54% | 1018.1 hPa | 0 mm | - | 216 W/m² | - |
| 1787949972 | 27.78° C | 55% | 1017.9 hPa | 0 mm | - | 201 W/m² | - |
| 1787949672 | 28.33° C | 54% | 1018.4 hPa | 0 mm | - | 227 W/m² | - |
| 1787949375 | 28.89° C | 50% | 1018.4 hPa | 0 mm | - | 299 W/m² | - |
| 1787949067 | 28.89° C | 53% | 1018.3 hPa | 0 mm | - | 383 W/m² | - |
| 1787948763 | 28.89° C | 49% | 1018.5 hPa | 0 mm | - | 351 W/m² | - |
| 1787948463 | 28.89° C | 50% | 1018.6 hPa | 0 mm | - | 452 W/m² | - |
| 1787948158 | 28.89° C | 50% | 1018.9 hPa | 0 mm | - | 348 W/m² | - |
| 1787947857 | 29.44° C | 50% | 1018.6 hPa | 0 mm | - | 428 W/m² | - |
| 1787947556 | 29.44° C | 49% | 1018.7 hPa | 0 mm | - | 450 W/m² | - |
| 1787947251 | 28.89° C | 48% | 1018.8 hPa | 0 mm | - | 498 W/m² | - |
| 1787946950 | 29.44° C | 53% | 1018.9 hPa | 0 mm | - | 519 W/m² | - |
| 1787946649 | 29.44° C | 49% | 1019 hPa | 0 mm | - | 495 W/m² | - |
| 1787946344 | 28.89° C | 51% | 1019 hPa | 0 mm | - | 634 W/m² | - |
* Rain latest hour (hover to see other rain measurements)
** Current wind speed in m/s (hover to see current wind gust speed)